Time,TemperatureF,DewpointF,PressureIn,WindDirection,WindDirectionDegrees,WindSpeedMPH,WindSpeedGustMPH,Humidity,HourlyPrecipIn,Conditions,Clouds,dailyrainin,SolarRadiationWatts/m^2,SoftwareType,DateUTC
2013-01-18 00:02:00,23.0,9.0,-100.00,NE,56,5.0,9.0,55,0.00,,,0.00,0.000000,,2013-01-18 07:02:00,
2013-01-18 00:33:00,21.0,7.0,-100.00,NE,51,5.0,8.0,54,0.00,,,-99.99,0.000000,,2013-01-18 07:33:00,
2013-01-18 00:42:00,21.0,7.0,-100.00,NE,51,5.0,8.0,54,0.00,,,-99.99,0.000000,,2013-01-18 07:42:00,
2013-01-18 00:52:00,21.0,7.0,-100.00,NE,51,5.0,8.0,54,0.00,,,-99.99,0.000000,,2013-01-18 07:52:00,
2013-01-18 01:02:00,21.0,7.0,-100.00,NE,51,5.0,8.0,54,0.00,,,-99.99,0.000000,,2013-01-18 08:02:00,
2013-01-18 01:32:00,18.0,8.0,-100.00,NE,48,4.0,6.0,63,0.00,,,0.00,0.000000,,2013-01-18 08:32:00,
2013-01-18 01:42:00,18.0,8.0,-100.00,NE,48,4.0,6.0,63,0.00,,,0.00,0.000000,,2013-01-18 08:42:00,
2013-01-18 01:53:00,18.0,8.0,-100.00,NE,48,4.0,6.0,63,0.00,,,0.00,0.000000,,2013-01-18 08:53:00,
2013-01-18 02:02:00,18.0,8.0,-100.00,NE,48,4.0,6.0,63,0.00,,,0.00,0.000000,,2013-01-18 09:02:00,
2013-01-18 02:33:00,17.0,7.0,-100.00,NE,51,5.0,6.0,65,0.00,,,0.00,0.000000,,2013-01-18 09:33:00,
2013-01-18 02:42:00,17.0,7.0,-100.00,NE,51,5.0,6.0,65,0.00,,,0.00,0.000000,,2013-01-18 09:42:00,
2013-01-18 02:52:00,17.0,7.0,-100.00,NE,51,5.0,6.0,65,0.00,,,0.00,0.000000,,2013-01-18 09:52:00,
2013-01-18 03:02:00,17.0,7.0,-100.00,NE,51,5.0,6.0,65,0.00,,,0.00,0.000000,,2013-01-18 10:02:00,
2013-01-18 03:33:00,19.0,9.0,-100.00,NE,41,4.0,6.0,65,0.00,,,0.00,0.000000,,2013-01-18 10:33:00,
2013-01-18 03:43:00,19.0,9.0,-100.00,NE,41,4.0,6.0,65,0.00,,,0.00,0.000000,,2013-01-18 10:43:00,
2013-01-18 03:52:00,19.0,9.0,-100.00,NE,41,4.0,6.0,65,0.00,,,0.00,0.000000,,2013-01-18 10:52:00,
2013-01-18 04:02:00,19.0,9.0,-100.00,NE,41,4.0,6.0,65,0.00,,,0.00,0.000000,,2013-01-18 11:02:00,
2013-01-18 04:33:00,19.0,9.0,-100.00,NE,49,4.0,5.0,65,0.00,,,0.00,0.000000,,2013-01-18 11:33:00,
2013-01-18 04:42:00,19.0,9.0,-100.00,NE,49,4.0,5.0,65,0.00,,,0.00,0.000000,,2013-01-18 11:42:00,
2013-01-18 04:53:00,19.0,9.0,-100.00,NE,49,4.0,5.0,65,0.00,,,0.00,0.000000,,2013-01-18 11:53:00,
2013-01-18 05:02:00,19.0,9.0,-100.00,NE,49,4.0,5.0,65,0.00,,,0.00,0.000000,,2013-01-18 12:02:00,
2013-01-18 05:33:00,20.0,11.0,-100.00,NE,55,5.0,5.0,66,0.00,,,0.00,0.000000,,2013-01-18 12:33:00,
2013-01-18 05:43:00,20.0,11.0,-100.00,NE,55,5.0,5.0,66,0.00,,,0.00,0.000000,,2013-01-18 12:43:00,
2013-01-18 05:53:00,20.0,11.0,-100.00,NE,55,5.0,5.0,66,0.00,,,0.00,0.000000,,2013-01-18 12:53:00,
2013-01-18 06:02:00,20.0,11.0,-100.00,NE,55,5.0,5.0,66,0.00,,,0.00,0.000000,,2013-01-18 13:02:00,
2013-01-18 06:33:00,19.0,9.0,-100.00,NE,48,4.0,6.0,64,0.00,,,0.00,0.000000,,2013-01-18 13:33:00,
2013-01-18 06:43:00,19.0,9.0,-100.00,NE,48,4.0,6.0,64,0.00,,,0.00,0.000000,,2013-01-18 13:43:00,
2013-01-18 06:53:00,19.0,9.0,-100.00,NE,48,4.0,6.0,64,0.00,,,0.00,0.000000,,2013-01-18 13:53:00,
2013-01-18 07:03:00,19.0,9.0,-100.00,NE,48,4.0,6.0,64,0.00,,,0.00,0.000000,,2013-01-18 14:03:00,
2013-01-18 07:34:00,18.0,9.0,-100.00,NE,47,5.0,5.0,68,0.00,,,0.00,0.000000,,2013-01-18 14:34:00,
2013-01-18 07:43:00,18.0,9.0,-100.00,NE,47,5.0,5.0,68,0.00,,,0.00,0.000000,,2013-01-18 14:43:00,
2013-01-18 07:53:00,18.0,9.0,-100.00,NE,47,5.0,5.0,68,0.00,,,0.00,0.000000,,2013-01-18 14:53:00,
2013-01-18 08:02:00,18.0,9.0,-100.00,NE,47,5.0,5.0,68,0.00,,,0.00,0.000000,,2013-01-18 15:02:00,
2013-01-18 08:34:00,18.0,9.0,-100.00,NE,45,5.0,6.0,66,0.00,,,0.00,5.000000,,2013-01-18 15:34:00,
2013-01-18 08:43:00,18.0,9.0,-100.00,NE,45,5.0,6.0,66,0.00,,,0.00,5.000000,,2013-01-18 15:43:00,
2013-01-18 08:53:00,18.0,9.0,-100.00,NE,45,5.0,6.0,66,0.00,,,0.00,5.000000,,2013-01-18 15:53:00,
2013-01-18 09:02:00,18.0,9.0,-100.00,NE,45,5.0,6.0,66,0.00,,,0.00,5.000000,,2013-01-18 16:02:00,
2013-01-18 09:33:00,27.0,10.0,-100.00,NE,46,4.0,6.0,48,0.00,,,0.00,34.000000,,2013-01-18 16:33:00,
2013-01-18 10:34:00,46.0,7.0,-100.00,ENE,61,2.0,5.0,20,0.00,,,0.00,314.000000,,2013-01-18 17:34:00,
2013-01-18 11:33:00,53.0,9.0,-100.00,SE,136,2.0,4.0,17,-99.99,,,0.00,488.000000,,2013-01-18 18:33:00,
2013-01-18 12:33:00,54.0,11.0,-100.00,South,189,3.0,7.0,18,-99.99,,,0.00,596.000000,,2013-01-18 19:33:00,
2013-01-18 13:33:00,53.0,12.0,-100.00,South,171,3.0,8.0,19,-99.99,,,-99.99,642.000000,,2013-01-18 20:33:00,
2013-01-18 13:43:00,53.0,12.0,-100.00,South,171,3.0,8.0,19,-99.99,,,-99.99,642.000000,,2013-01-18 20:43:00,
2013-01-18 13:53:00,53.0,12.0,-100.00,South,171,3.0,8.0,19,-99.99,,,-99.99,642.000000,,2013-01-18 20:53:00,
2013-01-18 14:02:00,53.0,12.0,-100.00,South,171,3.0,8.0,19,-99.99,,,-99.99,642.000000,,2013-01-18 21:02:00,
2013-01-18 14:33:00,51.0,11.0,-100.00,SE,138,3.0,9.0,20,-99.99,,,0.00,624.000000,,2013-01-18 21:33:00,
2013-01-18 14:43:00,51.0,11.0,-100.00,SE,138,3.0,9.0,20,-99.99,,,0.00,624.000000,,2013-01-18 21:43:00,
2013-01-18 14:53:00,51.0,11.0,-100.00,SE,138,3.0,9.0,20,-99.99,,,0.00,624.000000,,2013-01-18 21:53:00,
2013-01-18 15:02:00,51.0,11.0,-100.00,SE,138,3.0,9.0,20,-99.99,,,0.00,624.000000,,2013-01-18 22:02:00,
2013-01-18 15:33:00,52.0,11.0,-100.00,South,187,3.0,9.0,19,0.00,,,0.00,542.000000,,2013-01-18 22:33:00,
2013-01-18 15:43:00,52.0,11.0,-100.00,South,187,3.0,9.0,19,0.00,,,0.00,542.000000,,2013-01-18 22:43:00,
2013-01-18 15:53:00,52.0,11.0,-100.00,South,187,3.0,9.0,19,0.00,,,0.00,542.000000,,2013-01-18 22:53:00,
2013-01-18 16:02:00,52.0,11.0,-100.00,South,187,3.0,9.0,19,0.00,,,0.00,542.000000,,2013-01-18 23:02:00,
2013-01-18 16:33:00,46.0,10.0,-100.00,SE,135,3.0,6.0,23,-99.99,,,0.00,403.000000,,2013-01-18 23:33:00,
2013-01-18 16:43:00,46.0,10.0,-100.00,SE,135,3.0,6.0,23,-99.99,,,0.00,403.000000,,2013-01-18 23:43:00,
2013-01-18 16:53:00,46.0,10.0,-100.00,SE,135,3.0,6.0,23,-99.99,,,0.00,403.000000,,2013-01-18 23:53:00,
2013-01-18 17:02:00,46.0,10.0,-100.00,SE,135,3.0,6.0,23,-99.99,,,0.00,403.000000,,2013-01-19 00:02:00,
2013-01-18 17:33:00,40.0,9.0,-100.00,East,97,1.0,5.0,27,0.00,,,0.00,177.000000,,2013-01-19 00:33:00,
2013-01-18 17:43:00,40.0,9.0,-100.00,East,97,1.0,5.0,27,0.00,,,0.00,177.000000,,2013-01-19 00:43:00,
2013-01-18 17:53:00,40.0,9.0,-100.00,East,97,1.0,5.0,27,0.00,,,0.00,177.000000,,2013-01-19 00:53:00,
2013-01-18 18:02:00,40.0,9.0,-100.00,East,97,1.0,5.0,27,0.00,,,0.00,177.000000,,2013-01-19 01:02:00,
2013-01-18 18:33:00,29.0,6.0,-100.00,NE,55,3.0,3.0,37,-99.99,,,0.00,8.000000,,2013-01-19 01:33:00,
2013-01-18 18:43:00,29.0,6.0,-100.00,NE,55,3.0,3.0,37,-99.99,,,0.00,8.000000,,2013-01-19 01:43:00,
2013-01-18 18:52:00,29.0,6.0,-100.00,NE,55,3.0,3.0,37,-99.99,,,0.00,8.000000,,2013-01-19 01:52:00,
2013-01-18 19:02:00,29.0,6.0,-100.00,NE,55,3.0,3.0,37,-99.99,,,0.00,8.000000,,2013-01-19 02:02:00,
2013-01-18 19:33:00,25.0,5.0,-100.00,NE,48,4.0,5.0,42,0.00,,,0.00,0.000000,,2013-01-19 02:33:00,
2013-01-18 19:43:00,25.0,5.0,-100.00,NE,48,4.0,5.0,42,0.00,,,0.00,0.000000,,2013-01-19 02:43:00,
2013-01-18 19:53:00,25.0,5.0,-100.00,NE,48,4.0,5.0,42,0.00,,,0.00,0.000000,,2013-01-19 02:53:00,
2013-01-18 20:02:00,25.0,5.0,-100.00,NE,48,4.0,5.0,42,0.00,,,0.00,0.000000,,2013-01-19 03:02:00,
2013-01-18 20:33:00,24.0,5.0,-100.00,NE,43,4.0,5.0,44,0.00,,,0.00,0.000000,,2013-01-19 03:33:00,
2013-01-18 20:44:00,24.0,5.0,-100.00,NE,43,4.0,5.0,44,0.00,,,0.00,0.000000,,2013-01-19 03:44:00,
2013-01-18 20:52:00,24.0,5.0,-100.00,NE,43,4.0,5.0,44,0.00,,,0.00,0.000000,,2013-01-19 03:52:00,
2013-01-18 21:02:00,24.0,5.0,-100.00,NE,43,4.0,5.0,44,0.00,,,0.00,0.000000,,2013-01-19 04:02:00,
2013-01-18 21:33:00,23.0,4.0,-100.00,NE,48,4.0,6.0,43,0.00,,,0.00,0.000000,,2013-01-19 04:33:00,
2013-01-18 21:43:00,23.0,4.0,-100.00,NE,48,4.0,6.0,43,0.00,,,0.00,0.000000,,2013-01-19 04:43:00,
2013-01-18 21:53:00,23.0,4.0,-100.00,NE,48,4.0,6.0,43,0.00,,,0.00,0.000000,,2013-01-19 04:53:00,
2013-01-18 22:03:00,23.0,4.0,-100.00,NE,48,4.0,6.0,43,0.00,,,0.00,0.000000,,2013-01-19 05:03:00,
2013-01-18 22:33:00,19.0,3.0,-100.00,NE,42,4.0,5.0,48,0.00,,,0.00,0.000000,,2013-01-19 05:33:00,
2013-01-18 22:43:00,19.0,3.0,-100.00,NE,42,4.0,5.0,48,0.00,,,0.00,0.000000,,2013-01-19 05:43:00,
2013-01-18 22:53:00,19.0,3.0,-100.00,NE,42,4.0,5.0,48,0.00,,,0.00,0.000000,,2013-01-19 05:53:00,
2013-01-18 23:02:00,19.0,3.0,-100.00,NE,42,4.0,5.0,48,0.00,,,0.00,0.000000,,2013-01-19 06:02:00,
2013-01-18 23:33:00,18.0,3.0,-100.00,NE,44,4.0,5.0,50,0.00,,,0.00,0.000000,,2013-01-19 06:33:00,
2013-01-18 23:43:00,18.0,3.0,-100.00,NE,44,4.0,5.0,50,0.00,,,0.00,0.000000,,2013-01-19 06:43:00,
2013-01-18 23:53:00,18.0,3.0,-100.00,NE,44,4.0,5.0,50,0.00,,,0.00,0.000000,,2013-01-19 06:53:00,